Weather History for MROC - October, 2012

Change the Weather History Date:

Wednesday, October 17, 2012

  Actual Average Record
Temperature  
Mean Temperature 72 °F -  
Max Temperature 80 °F 78 °F 84 °F (2000)
Min Temperature 64 °F 64 °F 62 °F (2011)
Cooling Degree Days 7    
Growing Degree Days 22 (Base 50)    
Moisture  
Dew Point 64 °F    
Average Humidity 83    
Maximum Humidity 94    
Minimum Humidity 48    
Precipitation  
Precipitation 1.38 in 0.29 in - ()
Sea Level Pressure  
Sea Level Pressure 29.97 in    
Wind  
Wind Speed 3 mph ()    
Max Wind Speed 13 mph    
Max Gust Speed -    
Visibility 6.2 miles    
Events Fog , Rain , Thunderstorm    
Averages and records for this station are not official NWS values.
T = Trace of Precipitation, MM = Missing Value Source: Averaged Metar Reports

Daily Weather History Graph

Daily Weather History Graph

Search for Another Location

Airport or City:

Trip Planner

Search our weather history database for the weather conditions in past years. The results will help you decide how hot, cold, wet, or windy it might be!

Date:

Astronomy

Oct. 17, 2012 Rise Set
Actual Time 5:25 AM CST 5:18 PM CST
Civil Twilight 5:04 AM CST 5:39 PM CST
Nautical Twilight 4:39 AM CST 6:04 PM CST
Astronomical Twilight 4:14 AM CST 6:28 PM CST
Moon 7:27 AM CST (10/17) 7:27 PM CST (10/17)
Length of Visible Light 12h 35m
Length of Day
11h 53m
Waxing Crescent, 7% of the Moon is Illuminated
Oct 17
Waxing Crescent
Oct 21
First Quarter
Oct 29
Full
Nov 6
Last Quarter
Nov 13
New

Hourly Weather History & Observations

Time (CST) Temp. Heat Index Dew Point Humidity Pressure Visibility Wind Dir Wind Speed Gust Speed Precip Events Conditions
12:00 AM 65 °F - 63 °F 90% 29.90 in 12 mi Calm Calm - -   Clear
12:00 AM 64.4 °F - 62.6 °F 94% 30.02 in - Calm Calm - N/A   Clear
1:00 AM 64.4 °F - 62.6 °F 94% 30.00 in 6.2 mi Calm Calm - N/A   Scattered Clouds
2:00 AM 64.4 °F - 62.6 °F 94% 29.98 in 6.2 mi East 3.5 mph - N/A   Scattered Clouds
3:00 AM 65 °F - 63 °F 89% 29.85 in 9 mi NE 4.6 mph - - Fog Light Fog
3:00 AM 66.2 °F - 62.6 °F 88% 29.98 in 6.2 mi NE 4.6 mph - N/A Fog Mostly Cloudy
4:00 AM 66.2 °F - 62.6 °F 88% 29.98 in 6.2 mi NE 5.8 mph - N/A   Mostly Cloudy
5:00 AM 66.2 °F - 62.6 °F 88% 30.01 in 6.2 mi East 2.3 mph - N/A   Mostly Cloudy
6:00 AM 66 °F - 62 °F 85% 29.90 in 9 mi ESE 3.5 mph - -   Overcast
6:00 AM 66.2 °F - 62.6 °F 88% 30.03 in 6.2 mi ESE 3.5 mph - N/A   Mostly Cloudy
7:00 AM 68.0 °F - 62.6 °F 83% 30.04 in 6.2 mi ESE 3.5 mph - N/A   Mostly Cloudy
8:00 AM 73.4 °F - 64.4 °F 73% 30.04 in 6.2 mi ESE 4.6 mph - N/A   Partly Cloudy
9:00 AM 79 °F - 63 °F 48% 29.88 in 12 mi ESE 2.3 mph - -   Scattered Clouds
9:00 AM 78.8 °F - 62.6 °F 57% 30.04 in 6.2 mi ESE 2.3 mph - N/A   Partly Cloudy
10:00 AM 80.6 °F 82.7 °F 66.2 °F 61% 30.03 in 6.2 mi WSW 5.8 mph - N/A   Partly Cloudy
12:00 PM 79 °F - 66 °F 55% 29.82 in 12 mi SW 8.1 mph - -   Partly Cloudy
12:00 PM 78.8 °F - 66.2 °F 65% 29.99 in 6.2 mi SW 8.1 mph - N/A   Partly Cloudy
1:00 PM 78.8 °F - 68.0 °F 69% 29.96 in 6.2 mi WSW 9.2 mph - N/A   Partly Cloudy
2:00 PM 75.2 °F - 68.0 °F 78% 29.93 in 6.2 mi SW 12.7 mph - N/A   Scattered Clouds
3:00 PM 74 °F - 68 °F 77% 29.81 in 9 mi SW 9.2 mph - - Rain , Thunderstorm Heavy Thunderstorms and Rain
3:00 PM 73.4 °F - 68.0 °F 83% 29.94 in 6.2 mi SW 9.2 mph - N/A Rain , Thunderstorm Thunderstorms and Rain
3:25 PM 71.6 °F - 64.4 °F 78% 29.95 in 1.2 mi SW 4.6 mph - N/A Rain , Thunderstorm Thunderstorms and Rain
4:00 PM 66.2 °F - 64.4 °F 94% 29.96 in 0.3 mi North 8.1 mph - N/A Fog , Rain Rain Showers
4:35 PM 64.4 °F - 62.6 °F 94% 29.96 in 0.9 mi SE 3.5 mph - N/A Rain , Thunderstorm Rain
5:00 PM 64.4 °F - 62.6 °F 94% 29.97 in 3.1 mi ESE 3.5 mph - N/A Rain Rain
6:00 PM 66 °F - 64 °F 93% 29.88 in 9 mi East 3.5 mph - - Rain Light Rain
6:00 PM 66.2 °F - 64.4 °F 94% 29.99 in 6.2 mi East 3.5 mph - N/A Fog , Rain Light Rain
7:00 PM 68.0 °F - 66.2 °F 94% 30.03 in 6.2 mi ENE 2.3 mph - N/A Fog Patches of Fog
8:00 PM 68.0 °F - 66.2 °F 94% 30.04 in 6.2 mi SE 2.3 mph - N/A   Mostly Cloudy
9:00 PM 68.0 °F - 66.2 °F 94% 30.04 in 5.0 mi South 2.3 mph - N/A Fog Fog
10:00 PM 68.0 °F - 66.2 °F 94% 30.03 in 1.9 mi WSW 3.5 mph - N/A   Mostly Cloudy
11:00 PM 68.0 °F - 66.2 °F 94% 30.03 in 1.2 mi SW 2.3 mph - N/A   Mostly Cloudy